Weather observations for the past three days for
Ortonville, Ortonville Muncipal-Martinson Field Airport
Imperial (Metric)
Date Time (cdt) Wind (mph) Vis. (mi.) Weather Sky Cond. Temperature (ºF) Relative Humidity Wind Chill (°F) Heat Index (°F) Pressure Precipitation (in)
Air Dwpt 6 hour altimeter (in) sea level (mb) 1 hr 3 hr 6 hr
Max. Min.
17 17:35 SE 5 10.00 Partly Cloudy SCT014 64.4 60.8 88% 29.74 0.0
17 17:15 E 8 10.00 Overcast OVC014 64.4 59 83% 29.75 0.0
17 16:55 SE 9 10.00 Overcast OVC016 62.6 57.2 83% 29.77 0.0
17 16:35 SE 7 10.00 Overcast OVC016 62.6 59 88% 29.79 0.0
17 16:15 SE 12 10.00 Overcast OVC016 64.4 57.2 78% 29.78 0.0
17 15:55 E 12 10.00 Overcast OVC016 62.6 57.2 83% 29.77 0.0
17 15:35 E 7 10.00 Overcast OVC014 62.6 57.2 83% 29.77 0.0
17 15:15 SE 7 10.00 Mostly Cloudy BKN014 62.6 57.2 83% 29.77 0.0
17 14:55 E 12 10.00 Partly Cloudy SCT014 60.8 55.4 83% 29.75 0.0
17 14:35 E 12 10.00 Mostly Cloudy BKN014 60.8 55.4 83% 29.76 0.0
17 14:15 Calm 10.00 Overcast OVC016 60.8 55.4 83% 29.79 0.0
17 13:55 E 12 10.00 Overcast OVC016 60.8 53.6 77% 29.76 0.0
17 13:35 SE 8 10.00 Overcast OVC016 60.8 53.6 77% 29.8 0.0
17 13:15 E 10 10.00 Overcast OVC020 60.8 53.6 77% 29.79 0.0
17 12:55 E 7 10.00 Overcast OVC022 60.8 53.6 77% 29.81 0.0
17 12:35 E 8 10.00 Overcast OVC020 59 53.6 82% 29.82 0.0
17 12:15 SE 8 10.00 Overcast OVC022 59 53.6 82% 29.82 0.0
17 11:55 E 9 10.00 Overcast OVC024 59 53.6 82% 29.82 0.0
17 11:35 SE 9 10.00 Overcast BKN028 BKN032 OVC050 57.2 51.8 82% 29.81 0.0
17 11:15 E 6 10.00 Overcast BKN033 OVC040 57.2 51.8 82% 29.83 0.0
17 10:55 SE 10 10.00 Light Drizzle BKN038 OVC046 57.2 51.8 82% 29.83 0.0
17 10:35 SE 7 10.00 Light Drizzle SCT045 57.2 51.8 82% 29.83 0.0
17 10:15 E 13 G 17 10.00 Fair CLR 57.2 51.8 82% 29.8 0.0
17 09:55 E 8 10.00 Fair CLR 57.2 51.8 82% 29.83 0.0
17 09:35 SE 8 10.00 Fair CLR 57.2 53.6 88% 29.84 0.0
17 09:15 SE 3 10.00 Fair CLR 57.2 53.6 88% 29.85 0.0
17 08:55 SE 6 10.00 Partly Cloudy SCT065 57.2 53.6 88% 29.83 0.0
17 08:35 SE 7 10.00 Mostly Cloudy SCT065 BKN110 57.2 53.6 88% 29.83 0.0
17 08:15 SE 5 10.00 Partly Cloudy SCT065 SCT110 57.2 53.6 88% 29.85 0.0
17 07:55 SE 6 10.00 Mostly Cloudy SCT065 BKN110 57.2 53.6 88% 29.83 0.0
17 07:35 SE 7 10.00 Overcast BKN075 OVC110 57.2 53.6 88% 29.85 0.0
17 07:15 S 5 10.00 Mostly Cloudy BKN075 57.2 53.6 88% 29.86 0.0
17 06:55 SE 8 10.00 Fair CLR 57.2 53.6 88% 29.85 0.0
17 06:35 SE 8 10.00 Light Rain SCT075 59 55.4 88% 29.85 0.0
17 06:15 S 10 10.00 Light Drizzle BKN075 59 55.4 88% 29.86 0.0
17 05:55 S 9 10.00 Light Rain BKN075 60.8 55.4 83% 29.86 0.0
17 05:35 S 7 10.00 Light Rain BKN075 BKN085 60.8 55.4 83% 29.85 0.0
17 05:15 S 5 10.00 Light Drizzle OVC075 60.8 55.4 83% 29.84 0.0
17 04:55 S 5 10.00 Light Rain OVC065 60.8 55.4 83% 29.84 0.0
17 04:35 S 5 10.00 Light Rain BKN065 60.8 53.6 77% 29.83 0.0
17 04:15 SE 5 10.00 Light Rain SCT034 BKN065 OVC085 62.6 55.4 77% 29.83 0.0
17 03:55 W 5 10.00 Light Rain BKN065 OVC085 62.6 53.6 73% 29.83 0.0
17 03:35 Calm 10.00 Light Rain BKN060 OVC075 66.2 53.6 64% 29.81 0.0
17 03:15 Calm 10.00 Thunderstorm in Vicinity OVC060 66.2 50 56% 29.82 0.0
17 02:55 E 3 10.00 Overcast OVC060 66.2 48.2 52% 29.78 0.0
17 02:35 E 3 10.00 Overcast OVC060 66.2 50 56% 29.77 0.0
17 02:15 E 3 10.00 Overcast OVC060 66.2 48.2 52% 29.77 0.0
17 01:55 NE 6 10.00 Mostly Cloudy BKN060 66.2 48.2 52% 29.77 0.0
17 01:35 NE 5 10.00 Thunderstorm in Vicinity SCT070 66.2 48.2 52% 29.79 0.0
17 01:15 NE 7 10.00 Partly Cloudy SCT070 66.2 48.2 52% 29.79 0.0
17 00:55 NE 7 10.00 Fair CLR 66.2 48.2 52% 29.78 0.0
17 00:35 NE 7 10.00 Mostly Cloudy BKN080 68 48.2 49% 29.78 0.0
17 00:15 N 10 10.00 Overcast OVC080 69.8 48.2 46% 29.79 0.0
16 23:55 N 8 10.00 Overcast OVC070 68 51.8 56% 29.8 0.0
16 23:35 N 12 10.00 Partly Cloudy SCT070 66.2 51.8 60% 29.79 0.0
16 23:15 NW 7 10.00 Fair CLR 66.2 55.4 68% 29.8 0.0
16 22:55 Calm 10.00 Fair CLR 68 53.6 60% 29.8 0.0
16 22:35 Calm 10.00 Fair CLR 69.8 51.8 53% 29.8 0.0
16 22:15 W 5 10.00 Fair CLR 69.8 50 50% 29.79 0.0
16 21:55 N 9 10.00 Fair CLR 69.8 51.8 53% 29.77 0.0
16 21:35 NW 6 10.00 Fair CLR 69.8 51.8 53% 29.78 0.0
16 21:15 NW 6 10.00 Fair CLR 71.6 51.8 50% 29.76 0.0
16 20:55 NW 3 10.00 Fair CLR 71.6 51.8 50% 29.76 0.0
16 20:35 W 3 10.00 Fair CLR 71.6 51.8 50% 29.76 0.0
16 20:15 NW 7 10.00 Fair CLR 73.4 50 44% 29.75 0.0
16 19:55 W 6 10.00 Fair CLR 73.4 46.4 38% 29.75 0.0
16 19:35 NW 8 10.00 Fair CLR 75.2 46.4 36% 77 29.72 0.0
16 19:15 NW 7 10.00 Partly Cloudy SCT100 77 48.2 36% 78 29.71 0.0
16 18:55 NW 9 10.00 Fair CLR 77 46.4 34% 78 29.7 0.0
16 18:35 N 10 10.00 Fair CLR 78.8 48.2 34% 79 29.67 0.0
16 18:15 NW 13 G 17 10.00 Fair CLR 78.8 51.8 39% 79 29.68 0.0
16 17:55 N 5 10.00 Fair CLR 78.8 53.6 42% 79 29.67 0.0
16 17:35 N 12 G 20 10.00 Light Rain CLR 77 55.4 47% 79 29.66 0.0
16 17:15 NW 16 G 20 10.00 Fair CLR 78.8 59 51% 80 29.71 0.0
16 16:55 NW 14 G 23 10.00 Fair CLR 78.8 60.8 54% 80 29.69 0.0
16 16:35 NW 12 G 18 10.00 Fair CLR 78.8 60.8 54% 80 29.66 0.0
16 16:15 NW 15 G 21 10.00 Fair CLR 80.6 62.6 54% 82 29.65 0.0
16 15:55 NW 18 G 23 10.00 Partly Cloudy SCT050 80.6 62.6 54% 82 29.66 0.0
16 15:35 NW 17 G 25 10.00 Mostly Cloudy BKN050 80.6 62.6 54% 82 29.67 0.0
16 15:15 NW 18 G 23 10.00 Mostly Cloudy BKN048 82.4 64.4 55% 84 29.63 0.0
16 14:55 NW 14 G 20 10.00 Mostly Cloudy BKN050 82.4 66.2 58% 85 29.62 0.0
16 14:35 NW 13 G 18 10.00 Mostly Cloudy SCT045 BKN050 82.4 66.2 58% 85 29.61 0.0
16 14:15 NW 9 G 13 10.00 Partly Cloudy SCT045 82.4 66.2 58% 85 29.61 0.0
16 13:55 NW 13 10.00 Fair CLR 82.4 68 62% 85 29.6 0.0
16 13:35 NW 13 G 22 10.00 Partly Cloudy SCT045 82.4 69.8 66% 86 29.6 0.0
16 13:15 NW 13 G 21 10.00 Partly Cloudy SCT045 82.4 69.8 66% 86 29.6 0.0
16 12:55 NW 15 G 21 10.00 Partly Cloudy SCT037 82.4 69.8 66% 86 29.59 0.0
16 12:35 NW 15 G 22 10.00 Partly Cloudy SCT038 SCT045 80.6 69.8 70% 84 29.58 0.0
16 12:15 NW 16 G 21 10.00 Mostly Cloudy BKN040 BKN047 82.4 69.8 66% 86 29.58 0.0
16 11:55 W 10 10.00 Mostly Cloudy BKN040 82.4 69.8 66% 86 29.57 0.0
16 11:35 NW 8 10.00 Mostly Cloudy BKN036 80.6 69.8 70% 84 29.57 0.0
16 11:15 SW 7 10.00 Partly Cloudy SCT036 82.4 69.8 66% 86 29.55 0.0
16 10:55 SW 7 10.00 Partly Cloudy SCT034 80.6 69.8 70% 84 29.54 0.0
16 10:35 SW 8 10.00 Partly Cloudy SCT034 80.6 69.8 70% 84 29.54 0.0
16 10:15 W 9 10.00 Fair CLR 80.6 69.8 70% 84 29.54 0.0
16 09:55 SW 7 10.00 Fair CLR 78.8 69.8 74% 81 29.54 0.0
16 09:35 SW 8 10.00 Fair CLR 77 69.8 79% 79 29.54 0.0
16 09:15 SW 7 10.00 Fair CLR 77 69.8 79% 79 29.52 0.0
16 08:55 S 9 10.00 Fair CLR 75.2 68 78% 76 29.52 0.0
16 08:35 S 6 10.00 Fair CLR 73.4 68 83% 29.53 0.0
16 08:15 S 8 10.00 Fair CLR 71.6 66.2 83% 29.52 0.0
16 07:55 S 8 10.00 Fair CLR 69.8 66.2 88% 29.52 0.0
16 07:35 S 7 10.00 Fair CLR 69.8 64.4 83% 29.52 0.0
16 07:15 S 7 10.00 Fair CLR 68 64.4 88% 29.52 0.0
16 06:55 SE 8 10.00 Fair CLR 66.2 64.4 94% 29.51 0.0
16 06:35 SE 8 10.00 Fair CLR 66.2 64.4 94% 29.51 0.0
16 06:15 SE 8 10.00 Fair CLR 66.2 64.4 94% 29.51 0.0
16 05:55 SE 9 10.00 Fair CLR 66.2 64.4 94% 29.52 0.0
16 05:35 SE 8 10.00 Fair CLR 66.2 64.4 94% 29.54 0.0
16 05:15 SE 10 10.00 Fair CLR 66.2 66.2 100% 29.52 0.0
16 04:55 SE 10 10.00 Fair CLR 66.2 66.2 100% 29.52 0.0
16 04:35 SE 10 10.00 Fair CLR 66.2 66.2 100% 29.54 0.0
16 04:15 SE 12 10.00 Fair CLR 66.2 66.2 100% 29.54 0.0
16 03:55 SE 12 7.00 Fair CLR 66.2 66.2 100% 29.54 0.0
16 03:35 SE 12 7.00 Partly Cloudy SCT005 66.2 66.2 100% 29.54 0.0
16 03:15 SE 12 7.00 Mostly Cloudy BKN005 66.2 66.2 100% 29.54 0.0
16 02:55 SE 12 7.00 Mostly Cloudy BKN005 66.2 66.2 100% 29.56 0.0
16 02:35 SE 13 7.00 Mostly Cloudy BKN005 66.2 66.2 100% 29.56 0.0
16 02:15 SE 9 7.00 Overcast OVC005 66.2 66.2 100% 29.57 0.0
16 01:55 SE 12 G 16 10.00 Overcast OVC005 66.2 66.2 100% 29.58 0.0
16 01:35 SE 10 10.00 Overcast OVC005 64.4 64.4 100% 29.59 0.0
16 01:15 SE 9 10.00 Overcast OVC005 64.4 64.4 100% 29.61 0.0
16 00:55 SE 8 10.00 Overcast OVC005 64.4 64.4 100% 29.63 0.0
16 00:35 SE 7 10.00 Overcast OVC007 64.4 64.4 100% 29.64 0.0
16 00:15 SE 8 10.00 Overcast OVC007 64.4 64.4 100% 29.65 0.0
15 23:55 SE 7 10.00 Mostly Cloudy BKN007 64.4 64.4 100% 29.65 0.0
15 23:35 SE 9 10.00 Partly Cloudy SCT007 64.4 64.4 100% 29.64 0.0
15 23:15 SE 13 10.00 Partly Cloudy SCT007 64.4 64.4 100% 29.63 0.0
15 22:55 SE 13 10.00 Partly Cloudy SCT007 66.2 64.4 94% 29.63 0.0
15 22:35 SE 12 10.00 Partly Cloudy SCT007 66.2 66.2 100% 29.64 0.0
15 22:15 SE 10 10.00 Fair CLR 66.2 66.2 100% 29.65 0.0
15 21:55 SE 12 10.00 Partly Cloudy SCT009 68 66.2 94% 29.65 0.0
15 21:35 SE 10 10.00 Partly Cloudy SCT009 68 66.2 94% 29.66 0.0
15 21:15 SE 13 G 18 10.00 Fair CLR 69.8 66.2 88% 29.65 0.0
15 20:55 SE 14 10.00 Fair CLR 69.8 66.2 88% 29.66 0.0
15 20:35 SE 16 G 21 10.00 Fair CLR 71.6 68 88% 29.65 0.0
15 20:15 SE 15 10.00 Fair CLR 71.6 68 88% 29.66 0.0
15 19:55 SE 15 G 18 10.00 Fair CLR 71.6 68 88% 29.67 0.0
15 19:35 SE 12 10.00 Partly Cloudy SCT031 71.6 68 88% 29.68 0.0
15 19:15 SE 14 10.00 Partly Cloudy SCT031 SCT041 69.8 66.2 88% 29.69 0.0
15 18:55 SE 13 G 17 10.00 Mostly Cloudy SCT024 BKN042 69.8 66.2 88% 29.69 0.0
15 18:35 SE 12 10.00 Overcast SCT009 BKN024 OVC031 69.8 66.2 88% 29.7 0.0
15 18:15 SE 10 10.00 Overcast BKN009 OVC022 69.8 66.2 88% 29.71 0.0
15 17:55 SE 10 10.00 Mostly Cloudy SCT009 BKN022 69.8 66.2 88% 29.71 0.0
15 17:35 SE 10 10.00 Overcast SCT010 BKN023 OVC039 68 64.4 88% 29.72 0.0
15 17:15 SE 13 10.00 Overcast BKN010 BKN026 OVC042 68 64.4 88% 29.73 0.0
15 16:55 SE 15 10.00 Overcast OVC010 69.8 64.4 83% 29.74 0.0
15 16:35 SE 12 10.00 Overcast OVC010 68 64.4 88% 29.75 0.0
15 16:15 SE 14 G 20 10.00 Overcast BKN010 OVC024 68 64.4 88% 29.75 0.0
15 15:55 SE 13 G 18 10.00 Overcast SCT012 OVC022 68 64.4 88% 29.76 0.0
15 15:35 SE 9 G 18 10.00 Overcast BKN014 OVC021 68 64.4 88% 29.77 0.0
15 15:15 SE 13 G 17 10.00 Overcast OVC014 68 64.4 88% 29.77 0.0
15 14:55 SE 13 G 20 10.00 Overcast BKN016 OVC023 69.8 64.4 83% 29.78 0.0
15 14:35 SE 12 G 17 10.00 Overcast OVC015 69.8 64.4 83% 29.78 0.0
15 14:15 SE 13 G 18 10.00 Overcast SCT011 OVC019 68 64.4 88% 29.78 0.0
15 13:55 SE 10 10.00 Mostly Cloudy SCT011 SCT023 BKN060 68 64.4 88% 29.79 0.0
15 13:35 SE 10 G 16 10.00 Mostly Cloudy SCT050 BKN060 BKN070 69.8 64.4 83% 29.79 0.0
15 13:15 SE 13 G 17 10.00 Overcast SCT043 BKN050 OVC055 66.2 62.6 88% 29.8 0.0
15 12:55 SE 10 G 16 10.00 Overcast SCT036 BKN043 OVC050 66.2 62.6 88% 29.81 0.0
15 12:35 SE 13 G 20 4.00 Rain SCT032 BKN041 BKN050 66.2 62.6 88% 29.82 0.0
15 12:15 S 13 G 17 10.00 Partly Cloudy SCT075 69.8 60.8 73% 29.82 0.0
15 11:55 SE 13 G 16 10.00 Partly Cloudy SCT075 69.8 60.8 73% 29.83 0.0
15 11:35 SE 9 10.00 Partly Cloudy SCT065 68 60.8 78% 29.84 0.0
15 11:15 S 9 10.00 Light Drizzle SCT065 66.2 60.8 83% 29.84 0.0
15 10:55 SE 9 G 16 10.00 Light Drizzle SCT065 BKN080 66.2 60.8 83% 29.85 0.0
15 10:35 SE 14 G 17 10.00 Partly Cloudy SCT090 66.2 59 78% 29.85 0.0
15 10:15 SE 12 G 17 10.00 Partly Cloudy SCT065 SCT090 66.2 59 78% 29.85 0.0
15 09:55 S 9 G 16 10.00 Mostly Cloudy BKN065 66.2 57.2 73% 29.86 0.0
15 09:35 SE 10 G 18 10.00 Mostly Cloudy BKN065 66.2 57.2 73% 29.87 0.0
15 09:15 SE 14 G 21 10.00 Partly Cloudy SCT065 66.2 57.2 73% 29.88 0.0
15 08:55 S 13 G 22 10.00 Fair CLR 68 57.2 69% 29.88 0.0
15 08:35 S 14 G 23 10.00 Fair CLR 69.8 55.4 60% 29.88 0.0
15 08:15 S 10 G 18 10.00 Fair CLR 69.8 55.4 60% 29.88 0.0
15 07:55 S 10 G 17 10.00 Fair CLR 69.8 55.4 60% 29.88 0.0
15 07:35 S 12 G 18 10.00 Fair CLR 69.8 55.4 60% 29.89 0.0
15 07:15 S 10 G 18 10.00 Partly Cloudy SCT100 69.8 55.4 60% 29.89 0.0
15 06:55 SE 9 G 18 10.00 Mostly Cloudy BKN100 68 57.2 69% 29.89 0.0
15 06:35 SE 9 10.00 Overcast OVC100 66.2 57.2 73% 29.89 0.0
15 06:15 SE 10 G 17 10.00 Overcast OVC110 66.2 57.2 73% 29.89 0.0
15 05:55 SE 10 10.00 Overcast OVC100 66.2 57.2 73% 29.89 0.0
15 05:35 SE 9 10.00 Overcast OVC100 66.2 57.2 73% 29.89 0.0
15 05:15 SE 8 10.00 Partly Cloudy SCT100 66.2 55.4 68% 29.9 0.0
15 04:55 SE 10 10.00 Fair CLR 66.2 55.4 68% 29.89 0.0
15 04:35 SE 10 10.00 Fair CLR 69.8 55.4 60% 29.89 0.0
15 04:15 SE 10 G 17 10.00 Fair CLR 69.8 53.6 57% 29.91 0.0
15 03:55 SE 14 10.00 Fair CLR 69.8 53.6 57% 29.92 0.0
15 03:35 SE 10 G 16 10.00 Fair CLR 69.8 55.4 60% 29.93 0.0
15 03:15 SE 9 10.00 Partly Cloudy SCT120 69.8 55.4 60% 29.93 0.0
15 02:55 SE 10 10.00 Partly Cloudy SCT120 69.8 55.4 60% 29.93 0.0
15 02:35 SE 10 10.00 Fair CLR 69.8 55.4 60% 29.93 0.0
15 02:15 SE 9 10.00 Partly Cloudy SCT120 69.8 55.4 60% 29.94 0.0
15 01:55 SE 9 10.00 Fair CLR 69.8 55.4 60% 29.94 0.0
15 01:35 SE 9 10.00 Fair CLR 69.8 55.4 60% 29.94 0.0
15 01:15 SE 8 10.00 Fair CLR 69.8 55.4 60% 29.94 0.0
15 00:55 SE 10 10.00 Fair CLR 69.8 55.4 60% 29.95 0.0
15 00:35 SE 8 10.00 Fair CLR 69.8 55.4 60% 29.95 0.0
15 00:15 SE 9 10.00 Fair CLR 69.8 55.4 60% 29.96 0.0
14 23:55 SE 8 10.00 Fair CLR 69.8 55.4 60% 29.96 0.0
14 23:35 SE 8 10.00 Fair CLR 69.8 55.4 60% 29.96 0.0
14 23:15 SE 8 10.00 Fair CLR 69.8 55.4 60% 29.97 0.0
14 22:55 SE 8 10.00 Fair CLR 69.8 55.4 60% 29.97 0.0
14 22:35 SE 8 10.00 Fair CLR 69.8 55.4 60% 29.96 0.0
14 22:15 SE 7 10.00 Fair CLR 69.8 55.4 60% 29.97 0.0
14 21:55 SE 6 10.00 Fair CLR 71.6 55.4 57% 29.97 0.0
14 21:35 SE 8 10.00 Fair CLR 73.4 55.4 53% 29.96 0.0
14 21:15 SE 9 10.00 Fair CLR 73.4 57.2 57% 29.95 0.0
14 20:55 E 8 10.00 Fair CLR 75.2 57.2 54% 78 29.95 0.0
14 20:35 E 8 10.00 Fair CLR 75.2 55.4 50% 78 29.96 0.0
14 20:15 E 6 10.00 Fair CLR 77 55.4 47% 79 29.97 0.0
14 19:55 E 9 10.00 Fair CLR 78.8 53.6 42% 79 29.97 0.0
14 19:35 SE 7 10.00 Fair CLR 78.8 53.6 42% 79 29.98 0.0
14 19:15 E 7 10.00 Fair CLR 78.8 51.8 39% 79 29.98 0.0
14 18:55 E 7 10.00 Fair CLR 78.8 51.8 39% 79 29.98 0.0
14 18:35 SE 8 10.00 Fair CLR 80.6 51.8 37% 80 29.99 0.0
14 18:15 SE 7 10.00 Partly Cloudy SCT110 80.6 51.8 37% 80 29.99 0.0
Date Time (cdt) Wind (mph) Vis. (mi.) Weather Sky Cond. Air Dwpt Max. Min. Relative Humidity Wind Chill (°F) Heat Index (°F) altimeter (in) sea level (mb) 1 hr 3 hr 6 hr
6 hour
Temperature (ºF) Pressure Precipitation (in)